Zurück zum Katalog

CZ-6A DEB

AktivSSO
NORAD 55559·DEBRIS·🇨🇳 China

Gestartet Nov 11, 2022 von Taiyuan Satellite Launch Center

Loading…

Nächste Überflüge (nächste 24 Stunden)

TLE

AktuellSource: Space-Track

Epoche: Sep 13, 2026, 23:11 UTC

1 55559U 22151ZH  26256.96635087  .00003374  00000-0  14733-2 0  9992
2 55559  98.8338 263.6198 0077444   9.4194 350.8415 14.22947161196782

Verfolge CZ-6A DEB in Echtzeit mit AllMySat

Download on the App Store